NORTHEAST SUFFOLK  -  Special Weather Statement Special Weather Statement        NORTHERN NASSAU  -  Special Weather Statement Special Weather Statement        NORTHWEST SUFFOLK  -  Special Weather Statement Special Weather Statement        SOUTHEAST SUFFOLK  -  Special Weather Statement Special Weather Statement        SOUTHERN NASSAU  -  Special Weather Statement Special Weather Statement        SOUTHWEST SUFFOLK  -  Special Weather Statement Special Weather Statement      

Active alerts

Northern Nassau
  Details for Northern Nassau Special Weather Statement
Southern Nassau
  Details for Southern Nassau Special Weather Statement
Northwest Suffolk
  Details for Northwest Suffolk Special Weather Statement
Southwest Suffolk
  Details for Southwest Suffolk Special Weather Statement
Northeast Suffolk
  Details for Northeast Suffolk Special Weather Statement
Southeast Suffolk
  Details for Southeast Suffolk Special Weather Statement


WXM80 ListenWXM80 Stop

You find our weather info also at:

UK Metoffice

WeatherCloud

Weather Underground

Northeastern Weather Network

AWEKAS

Citizen Weather Observer Program (CWOP)

HAMweather, WeatherForYou, PWS Weather


Weather Underground History page Text

Daily Summary for January 16, 2018 Units:  Both    English   Metric
« Previous Day
Next Day »
Daily Weekly Monthly Yearly Custom
  High: Low: Average:
Temperature: 33.6 °F /  0.9 °C 25.0 °F /  -3.9 °C 29.6 °F /  -1.3 °C
Dew Point: 30.8 °F /  -0.7 °C 20.1 °F /  -6.6 °C 26.1 °F /  -3.3 °C
Humidity: 94 % 80 % 87 %
Wind Speed: 6.0 mph /  9.7 km/h - 1.5 mph /  2.4 km/h
Wind Gust: 8.1 mph /  13 km/h - -
Wind:- - ENE
Pressure: 30.30 in /  1026 hPa 30.08 in /  1018.5 hPa -
Precipitation: 0.00 in /  0 mm    
Historical Graphs
 
 
Tabular Data for January 16, 2018
Time Temperature Dew Point Pressure Wind Wind Speed Wind Gust Humidity Rainfall Rate (Hourly)
00:02 26.5 °F /  -3.1 °C 22.9 °F /  -5.1 °C 30.25 in /  1024.3 hPa ENE 2.7 mph /  4.3 km/h 3.5 mph /  5.6 km/h 86 % 0.00 in /  0 mm
00:10 26.5 °F /  -3.1 °C 23.2 °F /  -4.9 °C 30.24 in /  1023.9 hPa ENE 4.2 mph /  6.8 km/h 6.9 mph /  11.1 km/h 87 % 0.00 in /  0 mm
00:17 26.6 °F /  -3 °C 23.3 °F /  -4.8 °C 30.25 in /  1024.3 hPa East 1.4 mph /  2.3 km/h 2.3 mph /  3.7 km/h 87 % 0.00 in /  0 mm
00:25 26.6 °F /  -3 °C 23.3 °F /  -4.8 °C 30.25 in /  1024.3 hPa ENE 3.0 mph /  4.8 km/h 3.5 mph /  5.6 km/h 87 % 0.00 in /  0 mm
00:40 26.7 °F /  -2.9 °C 23.6 °F /  -4.7 °C 30.24 in /  1023.9 hPa ENE 1.8 mph /  2.9 km/h 3.5 mph /  5.6 km/h 88 % 0.00 in /  0 mm
00:48 26.7 °F /  -2.9 °C 23.6 °F /  -4.7 °C 30.24 in /  1023.9 hPa ENE 1.9 mph /  3.1 km/h 3.5 mph /  5.6 km/h 88 % 0.00 in /  0 mm
01:14 26.8 °F /  -2.9 °C 23.7 °F /  -4.6 °C 30.24 in /  1023.9 hPa East 1.2 mph /  1.9 km/h 2.3 mph /  3.7 km/h 88 % 0.00 in /  0 mm
01:24 26.7 °F /  -2.9 °C 23.6 °F /  -4.7 °C 30.24 in /  1023.9 hPa Calm     88 % 0.00 in /  0 mm
01:40 26.7 °F /  -2.9 °C 23.4 °F /  -4.8 °C 30.25 in /  1024.3 hPa Calm     87 % 0.00 in /  0 mm
01:52 26.5 °F /  -3.1 °C 22.9 °F /  -5.1 °C 30.25 in /  1024.3 hPa Calm     86 % 0.00 in /  0 mm
01:59 26.5 °F /  -3.1 °C 22.9 °F /  -5.1 °C 30.25 in /  1024.3 hPa ENE 0.1 mph /  0.2 km/h 1.2 mph /  1.9 km/h 86 % 0.00 in /  0 mm
02:16 26.2 °F /  -3.2 °C 21.7 °F /  -5.7 °C 30.25 in /  1024.3 hPa ENE 2.0 mph /  3.2 km/h 3.5 mph /  5.6 km/h 83 % 0.00 in /  0 mm
02:21 26.1 °F /  -3.3 °C 21.6 °F /  -5.8 °C 30.25 in /  1024.3 hPa ENE 1.9 mph /  3.1 km/h 3.5 mph /  5.6 km/h 83 % 0.00 in /  0 mm
02:27 26.1 °F /  -3.3 °C 21.4 °F /  -5.9 °C 30.25 in /  1024.3 hPa NE 1.2 mph /  1.9 km/h 3.5 mph /  5.6 km/h 82 % 0.00 in /  0 mm
02:47 26.0 °F /  -3.3 °C 21.3 °F /  -5.9 °C 30.25 in /  1024.3 hPa NE 1.0 mph /  1.6 km/h 2.3 mph /  3.7 km/h 82 % 0.00 in /  0 mm
02:56 26.0 °F /  -3.3 °C 21.3 °F /  -5.9 °C 30.26 in /  1024.6 hPa NNE 2.9 mph /  4.7 km/h 6.0 mph /  9.7 km/h 82 % 0.00 in /  0 mm
03:06 26.0 °F /  -3.3 °C 21.0 °F /  -6.1 °C 30.27 in /  1024.9 hPa NNE 1.7 mph /  2.7 km/h 3.5 mph /  5.6 km/h 81 % 0.00 in /  0 mm
03:12 25.9 °F /  -3.4 °C 20.9 °F /  -6.2 °C 30.27 in /  1024.9 hPa North 4.4 mph /  7.1 km/h 5.8 mph /  9.3 km/h 81 % 0.00 in /  0 mm
03:21 25.8 °F /  -3.4 °C 20.8 °F /  -6.2 °C 30.27 in /  1024.9 hPa NNE 5.0 mph /  8 km/h 7.0 mph /  11.3 km/h 81 % 0.00 in /  0 mm
03:29 25.6 °F /  -3.6 °C 20.3 °F /  -6.5 °C 30.27 in /  1024.9 hPa North 2.8 mph /  4.5 km/h 3.5 mph /  5.6 km/h 80 % 0.00 in /  0 mm
03:45 25.4 °F /  -3.7 °C 20.1 °F /  -6.6 °C 30.26 in /  1024.6 hPa ENE 2.5 mph /  4 km/h 4.6 mph /  7.4 km/h 80 % 0.00 in /  0 mm
03:59 25.1 °F /  -3.8 °C 20.1 °F /  -6.6 °C 30.26 in /  1024.6 hPa ENE 0.4 mph /  0.6 km/h 2.3 mph /  3.7 km/h 81 % 0.00 in /  0 mm
04:13 25.0 °F /  -3.9 °C 20.3 °F /  -6.5 °C 30.26 in /  1024.6 hPa NE 1.2 mph /  1.9 km/h 3.5 mph /  5.6 km/h 82 % 0.00 in /  0 mm
04:19 25.0 °F /  -3.9 °C 20.3 °F /  -6.5 °C 30.26 in /  1024.6 hPa NE 0.9 mph /  1.4 km/h 2.3 mph /  3.7 km/h 82 % 0.00 in /  0 mm
04:25 25.1 °F /  -3.8 °C 20.4 °F /  -6.4 °C 30.26 in /  1024.6 hPa NE 1.5 mph /  2.4 km/h 2.3 mph /  3.7 km/h 82 % 0.00 in /  0 mm
04:41 25.2 °F /  -3.8 °C 20.7 °F /  -6.3 °C 30.26 in /  1024.6 hPa NE 1.0 mph /  1.6 km/h 2.0 mph /  3.2 km/h 83 % 0.00 in /  0 mm
04:49 25.2 °F /  -3.8 °C 20.8 °F /  -6.2 °C 30.26 in /  1024.6 hPa NE 1.9 mph /  3.1 km/h 3.5 mph /  5.6 km/h 83 % 0.00 in /  0 mm
04:55 25.3 °F /  -3.7 °C 20.9 °F /  -6.2 °C 30.27 in /  1024.9 hPa NE 1.2 mph /  1.9 km/h 2.3 mph /  3.7 km/h 83 % 0.00 in /  0 mm
05:09 25.4 °F /  -3.7 °C 21.0 °F /  -6.1 °C 30.26 in /  1024.6 hPa ENE 1.8 mph /  2.9 km/h 3.5 mph /  5.6 km/h 83 % 0.00 in /  0 mm
05:22 25.5 °F /  -3.6 °C 21.3 °F /  -5.9 °C 30.27 in /  1024.9 hPa Calm   2.3 mph /  3.7 km/h 84 % 0.00 in /  0 mm
05:35 25.5 °F /  -3.6 °C 21.3 °F /  -5.9 °C 30.26 in /  1024.6 hPa Calm     84 % 0.00 in /  0 mm
05:41 25.6 °F /  -3.6 °C 21.4 °F /  -5.9 °C 30.26 in /  1024.6 hPa Calm     84 % 0.00 in /  0 mm
05:50 25.6 °F /  -3.6 °C 21.4 °F /  -5.9 °C 30.26 in /  1024.6 hPa Calm     84 % 0.00 in /  0 mm
05:58 25.6 °F /  -3.6 °C 21.4 °F /  -5.9 °C 30.26 in /  1024.6 hPa Calm     84 % 0.00 in /  0 mm
06:05 25.6 °F /  -3.6 °C 21.4 °F /  -5.9 °C 30.27 in /  1024.9 hPa Calm     84 % 0.00 in /  0 mm
06:20 25.7 °F /  -3.5 °C 21.5 °F /  -5.8 °C 30.27 in /  1024.9 hPa Calm     84 % 0.00 in /  0 mm
06:28 25.7 °F /  -3.5 °C 21.5 °F /  -5.8 °C 30.27 in /  1024.9 hPa Calm     84 % 0.00 in /  0 mm
06:34 25.8 °F /  -3.4 °C 21.6 °F /  -5.8 °C 30.27 in /  1024.9 hPa Calm     84 % 0.00 in /  0 mm
06:42 25.8 °F /  -3.4 °C 21.6 °F /  -5.8 °C 30.27 in /  1024.9 hPa ENE 0.4 mph /  0.6 km/h 2.3 mph /  3.7 km/h 84 % 0.00 in /  0 mm
06:47 25.8 °F /  -3.4 °C 21.6 °F /  -5.8 °C 30.27 in /  1024.9 hPa Calm     84 % 0.00 in /  0 mm
06:52 25.8 °F /  -3.4 °C 21.6 °F /  -5.8 °C 30.27 in /  1024.9 hPa Calm     84 % 0.00 in /  0 mm
06:59 26.0 °F /  -3.3 °C 21.8 °F /  -5.7 °C 30.28 in /  1025.3 hPa ENE 0.3 mph /  0.5 km/h 1.2 mph /  1.9 km/h 84 % 0.00 in /  0 mm
07:05 26.0 °F /  -3.3 °C 21.8 °F /  -5.7 °C 30.28 in /  1025.3 hPa ENE 0.3 mph /  0.5 km/h 2.3 mph /  3.7 km/h 84 % 0.00 in /  0 mm
07:14 26.0 °F /  -3.3 °C 21.8 °F /  -5.7 °C 30.28 in /  1025.3 hPa Calm     84 % 0.00 in /  0 mm
07:26 26.2 °F /  -3.2 °C 22.0 °F /  -5.6 °C 30.29 in /  1025.6 hPa Calm     84 % 0.00 in /  0 mm
07:35 26.3 °F /  -3.2 °C 22.1 °F /  -5.5 °C 30.29 in /  1025.6 hPa WNW 0.2 mph /  0.3 km/h 2.3 mph /  3.7 km/h 84 % 0.00 in /  0 mm
07:41 26.4 °F /  -3.1 °C 22.2 °F /  -5.4 °C 30.28 in /  1025.3 hPa WNW 1.2 mph /  1.9 km/h 2.3 mph /  3.7 km/h 84 % 0.00 in /  0 mm
07:51 26.4 °F /  -3.1 °C 22.2 °F /  -5.4 °C 30.29 in /  1025.6 hPa Calm     84 % 0.00 in /  0 mm
07:59 26.5 °F /  -3.1 °C 22.0 °F /  -5.6 °C 30.29 in /  1025.6 hPa WNW 0.6 mph /  1 km/h 2.0 mph /  3.2 km/h 83 % 0.00 in /  0 mm
08:05 26.5 °F /  -3.1 °C 22.0 °F /  -5.6 °C 30.30 in /  1026 hPa Calm     83 % 0.00 in /  0 mm
08:18 26.6 °F /  -3 °C 21.8 °F /  -5.7 °C 30.29 in /  1025.6 hPa WNW 0.7 mph /  1.1 km/h 2.3 mph /  3.7 km/h 82 % 0.00 in /  0 mm
08:27 26.6 °F /  -3 °C 22.1 °F /  -5.5 °C 30.29 in /  1025.6 hPa NNE 1.8 mph /  2.9 km/h 3.5 mph /  5.6 km/h 83 % 0.00 in /  0 mm
08:40 26.9 °F /  -2.8 °C 22.4 °F /  -5.3 °C 30.29 in /  1025.6 hPa ENE 0.7 mph /  1.1 km/h 2.3 mph /  3.7 km/h 83 % 0.00 in /  0 mm
08:54 27.2 °F /  -2.7 °C 22.7 °F /  -5.2 °C 30.29 in /  1025.6 hPa East 2.2 mph /  3.5 km/h 3.5 mph /  5.6 km/h 83 % 0.00 in /  0 mm
09:05 27.5 °F /  -2.5 °C 23.3 °F /  -4.8 °C 30.28 in /  1025.3 hPa East 2.2 mph /  3.5 km/h 3.5 mph /  5.6 km/h 84 % 0.00 in /  0 mm
09:20 27.9 °F /  -2.3 °C 23.7 °F /  -4.6 °C 30.28 in /  1025.3 hPa East 3.9 mph /  6.3 km/h 5.8 mph /  9.3 km/h 84 % 0.00 in /  0 mm
09:30 28.1 °F /  -2.2 °C 24.2 °F /  -4.3 °C 30.27 in /  1024.9 hPa East 2.0 mph /  3.2 km/h 5.8 mph /  9.3 km/h 85 % 0.00 in /  0 mm
09:36 28.3 °F /  -2.1 °C 24.4 °F /  -4.2 °C 30.27 in /  1024.9 hPa East 2.3 mph /  3.7 km/h 5.0 mph /  8 km/h 85 % 0.00 in /  0 mm
09:42 28.5 °F /  -1.9 °C 24.6 °F /  -4.1 °C 30.27 in /  1024.9 hPa East 0.7 mph /  1.1 km/h 3.5 mph /  5.6 km/h 85 % 0.00 in /  0 mm
09:51 28.7 °F /  -1.8 °C 24.8 °F /  -4 °C 30.27 in /  1024.9 hPa East 2.0 mph /  3.2 km/h 3.5 mph /  5.6 km/h 85 % 0.00 in /  0 mm
10:00 29.1 °F /  -1.6 °C 25.2 °F /  -3.8 °C 30.27 in /  1024.9 hPa East 1.7 mph /  2.7 km/h 3.5 mph /  5.6 km/h 85 % 0.00 in /  0 mm
10:06 29.4 °F /  -1.4 °C 25.4 °F /  -3.7 °C 30.27 in /  1024.9 hPa East 1.0 mph /  1.6 km/h 5.0 mph /  8 km/h 85 % 0.00 in /  0 mm
10:11 29.7 °F /  -1.3 °C 25.5 °F /  -3.6 °C 30.26 in /  1024.6 hPa East 2.0 mph /  3.2 km/h 3.5 mph /  5.6 km/h 84 % 0.00 in /  0 mm
10:16 29.9 °F /  -1.2 °C 25.7 °F /  -3.5 °C 30.26 in /  1024.6 hPa East 1.5 mph /  2.4 km/h 3.5 mph /  5.6 km/h 84 % 0.00 in /  0 mm
10:31 30.7 °F /  -0.7 °C 26.1 °F /  -3.3 °C 30.26 in /  1024.6 hPa ENE 2.4 mph /  3.9 km/h 3.5 mph /  5.6 km/h 83 % 0.00 in /  0 mm
10:40 30.9 °F /  -0.6 °C 26.1 °F /  -3.3 °C 30.26 in /  1024.6 hPa ENE 4.1 mph /  6.6 km/h 4.6 mph /  7.4 km/h 82 % 0.00 in /  0 mm
10:45 31.0 °F /  -0.6 °C 26.1 °F /  -3.3 °C 30.26 in /  1024.6 hPa ENE 2.6 mph /  4.2 km/h 4.0 mph /  6.4 km/h 82 % 0.00 in /  0 mm
10:52 31.1 °F /  -0.5 °C 26.2 °F /  -3.2 °C 30.25 in /  1024.3 hPa ENE 3.0 mph /  4.8 km/h 4.0 mph /  6.4 km/h 82 % 0.00 in /  0 mm
10:58 31.2 °F /  -0.4 °C 26.3 °F /  -3.2 °C 30.25 in /  1024.3 hPa ENE 3.9 mph /  6.3 km/h 5.0 mph /  8 km/h 82 % 0.00 in /  0 mm
11:05 31.4 °F /  -0.3 °C 26.5 °F /  -3.1 °C 30.25 in /  1024.3 hPa NE 3.1 mph /  5 km/h 6.9 mph /  11.1 km/h 82 % 0.00 in /  0 mm
11:11 31.4 °F /  -0.3 °C 26.5 °F /  -3.1 °C 30.25 in /  1024.3 hPa ENE 3.5 mph /  5.6 km/h 4.6 mph /  7.4 km/h 82 % 0.00 in /  0 mm
11:16 31.4 °F /  -0.3 °C 26.5 °F /  -3.1 °C 30.25 in /  1024.3 hPa NE 4.0 mph /  6.4 km/h 6.9 mph /  11.1 km/h 82 % 0.00 in /  0 mm
11:25 31.5 °F /  -0.3 °C 26.6 °F /  -3 °C 30.25 in /  1024.3 hPa ENE 3.1 mph /  5 km/h 7.0 mph /  11.3 km/h 82 % 0.00 in /  0 mm
11:34 31.4 °F /  -0.3 °C 26.8 °F /  -2.9 °C 30.25 in /  1024.3 hPa NE 3.1 mph /  5 km/h 6.9 mph /  11.1 km/h 83 % 0.00 in /  0 mm
11:49 31.5 °F /  -0.3 °C 27.2 °F /  -2.7 °C 30.23 in /  1023.6 hPa ENE 4.0 mph /  6.4 km/h 8.1 mph /  13 km/h 84 % 0.00 in /  0 mm
12:00 31.6 °F /  -0.2 °C 27.3 °F /  -2.6 °C 30.23 in /  1023.6 hPa ENE 6.0 mph /  9.7 km/h 8.1 mph /  13 km/h 84 % 0.00 in /  0 mm
12:06 31.6 °F /  -0.2 °C 27.3 °F /  -2.6 °C 30.22 in /  1023.2 hPa ENE 4.0 mph /  6.4 km/h 6.9 mph /  11.1 km/h 84 % 0.00 in /  0 mm
12:13 31.6 °F /  -0.2 °C 27.3 °F /  -2.6 °C 30.22 in /  1023.2 hPa ENE 4.4 mph /  7.1 km/h 6.9 mph /  11.1 km/h 84 % 0.00 in /  0 mm
12:24 31.8 °F /  -0.1 °C 27.8 °F /  -2.3 °C 30.22 in /  1023.2 hPa ENE 3.0 mph /  4.8 km/h 6.9 mph /  11.1 km/h 85 % 0.00 in /  0 mm
12:26 31.9 °F /  -0.1 °C 27.9 °F /  -2.3 °C 30.21 in /  1022.9 hPa ENE 2.2 mph /  3.5 km/h 4.6 mph /  7.4 km/h 85 % 0.00 in /  0 mm
12:39 32.1 °F /  0.1 °C 28.4 °F /  -2 °C 30.21 in /  1022.9 hPa ENE 2.4 mph /  3.9 km/h 3.5 mph /  5.6 km/h 86 % 0.00 in /  0 mm
12:45 32.2 °F /  0.1 °C 28.2 °F /  -2.1 °C 30.21 in /  1022.9 hPa ENE 3.5 mph /  5.6 km/h 6.9 mph /  11.1 km/h 85 % 0.00 in /  0 mm
12:52 32.3 °F /  0.2 °C 28.6 °F /  -1.9 °C 30.20 in /  1022.6 hPa ENE 3.8 mph /  6.1 km/h 4.6 mph /  7.4 km/h 86 % 0.00 in /  0 mm
13:06 32.5 °F /  0.3 °C 28.8 °F /  -1.8 °C 30.20 in /  1022.6 hPa ENE 5.0 mph /  8 km/h 8.0 mph /  12.9 km/h 86 % 0.00 in /  0 mm
13:11 32.8 °F /  0.4 °C 29.1 °F /  -1.6 °C 30.20 in /  1022.6 hPa East 5.0 mph /  8 km/h 8.1 mph /  13 km/h 86 % 0.00 in /  0 mm
13:21 33.1 °F /  0.6 °C 29.1 °F /  -1.6 °C 30.20 in /  1022.6 hPa ENE 4.6 mph /  7.4 km/h 6.9 mph /  11.1 km/h 85 % 0.00 in /  0 mm
13:26 33.2 °F /  0.7 °C 29.2 °F /  -1.6 °C 30.20 in /  1022.6 hPa NE 4.4 mph /  7.1 km/h 6.9 mph /  11.1 km/h 85 % 0.00 in /  0 mm
13:38 33.2 °F /  0.7 °C 29.2 °F /  -1.6 °C 30.20 in /  1022.6 hPa NE 1.5 mph /  2.4 km/h 4.6 mph /  7.4 km/h 85 % 0.00 in /  0 mm
13:47 33.2 °F /  0.7 °C 29.2 °F /  -1.6 °C 30.19 in /  1022.2 hPa NE 1.6 mph /  2.6 km/h 3.5 mph /  5.6 km/h 85 % 0.00 in /  0 mm
13:55 33.2 °F /  0.7 °C 29.2 °F /  -1.6 °C 30.19 in /  1022.2 hPa ENE 1.8 mph /  2.9 km/h 3.5 mph /  5.6 km/h 85 % 0.00 in /  0 mm
14:01 33.2 °F /  0.7 °C 29.2 °F /  -1.6 °C 30.19 in /  1022.2 hPa NE 1.9 mph /  3.1 km/h 3.5 mph /  5.6 km/h 85 % 0.00 in /  0 mm
14:08 33.4 °F /  0.8 °C 29.4 °F /  -1.4 °C 30.19 in /  1022.2 hPa ENE 2.9 mph /  4.7 km/h 4.6 mph /  7.4 km/h 85 % 0.00 in /  0 mm
14:13 33.3 °F /  0.7 °C 29.3 °F /  -1.5 °C 30.19 in /  1022.2 hPa ENE 2.2 mph /  3.5 km/h 3.5 mph /  5.6 km/h 85 % 0.00 in /  0 mm
14:19 33.4 °F /  0.8 °C 29.4 °F /  -1.4 °C 30.19 in /  1022.2 hPa NNE 2.5 mph /  4 km/h 4.6 mph /  7.4 km/h 85 % 0.00 in /  0 mm
14:24 33.5 °F /  0.8 °C 29.8 °F /  -1.2 °C 30.19 in /  1022.2 hPa NE 1.6 mph /  2.6 km/h 3.5 mph /  5.6 km/h 86 % 0.00 in /  0 mm
14:31 33.6 °F /  0.9 °C 29.6 °F /  -1.3 °C 30.19 in /  1022.2 hPa NE 1.9 mph /  3.1 km/h 4.0 mph /  6.4 km/h 85 % 0.00 in /  0 mm
14:40 33.4 °F /  0.8 °C 29.4 °F /  -1.4 °C 30.19 in /  1022.2 hPa ENE 2.0 mph /  3.2 km/h 4.0 mph /  6.4 km/h 85 % 0.00 in /  0 mm
14:45 33.3 °F /  0.7 °C 29.3 °F /  -1.5 °C 30.19 in /  1022.2 hPa NE 3.9 mph /  6.3 km/h 6.9 mph /  11.1 km/h 85 % 0.00 in /  0 mm
14:51 33.2 °F /  0.7 °C 29.5 °F /  -1.4 °C 30.19 in /  1022.2 hPa NE 1.3 mph /  2.1 km/h 3.0 mph /  4.8 km/h 86 % 0.00 in /  0 mm
15:03 33.1 °F /  0.6 °C 29.4 °F /  -1.4 °C 30.19 in /  1022.2 hPa ENE 4.1 mph /  6.6 km/h 4.6 mph /  7.4 km/h 86 % 0.00 in /  0 mm
15:13 33.0 °F /  0.6 °C 29.3 °F /  -1.5 °C 30.19 in /  1022.2 hPa ENE 2.7 mph /  4.3 km/h 4.6 mph /  7.4 km/h 86 % 0.00 in /  0 mm
15:22 32.9 °F /  0.5 °C 29.5 °F /  -1.4 °C 30.19 in /  1022.2 hPa ENE 3.1 mph /  5 km/h 6.9 mph /  11.1 km/h 87 % 0.00 in /  0 mm
16:02 32.7 °F /  0.4 °C 29.5 °F /  -1.4 °C 30.19 in /  1022.2 hPa ENE 1.2 mph /  1.9 km/h 3.5 mph /  5.6 km/h 88 % 0.00 in /  0 mm
16:14 32.6 °F /  0.3 °C 29.4 °F /  -1.4 °C 30.19 in /  1022.2 hPa ENE 2.0 mph /  3.2 km/h 3.5 mph /  5.6 km/h 88 % 0.00 in /  0 mm
16:34 32.5 °F /  0.3 °C 29.6 °F /  -1.3 °C 30.19 in /  1022.2 hPa ENE 1.7 mph /  2.7 km/h 3.5 mph /  5.6 km/h 89 % 0.00 in /  0 mm
16:41 32.4 °F /  0.2 °C 29.5 °F /  -1.4 °C 30.19 in /  1022.2 hPa ENE 0.5 mph /  0.8 km/h 2.0 mph /  3.2 km/h 89 % 0.00 in /  0 mm
17:09 32.0 °F /  0 °C 29.1 °F /  -1.6 °C 30.18 in /  1021.9 hPa ENE 0.8 mph /  1.3 km/h 2.3 mph /  3.7 km/h 89 % 0.00 in /  0 mm
17:14 31.8 °F /  -0.1 °C 28.9 °F /  -1.7 °C 30.18 in /  1021.9 hPa ENE 0.7 mph /  1.1 km/h 2.3 mph /  3.7 km/h 89 % 0.00 in /  0 mm
17:29 31.6 °F /  -0.2 °C 29.0 °F /  -1.7 °C 30.17 in /  1021.6 hPa Calm     90 % 0.00 in /  0 mm
18:11 31.9 °F /  -0.1 °C 29.8 °F /  -1.2 °C 30.17 in /  1021.6 hPa NE 1.7 mph /  2.7 km/h 2.3 mph /  3.7 km/h 92 % 0.00 in /  0 mm
18:16 32.0 °F /  0 °C 29.9 °F /  -1.2 °C 30.17 in /  1021.6 hPa ENE 1.0 mph /  1.6 km/h 3.0 mph /  4.8 km/h 92 % 0.00 in /  0 mm
18:31 32.2 °F /  0.1 °C 30.4 °F /  -0.9 °C 30.18 in /  1021.9 hPa ENE 0.9 mph /  1.4 km/h 2.3 mph /  3.7 km/h 93 % 0.00 in /  0 mm
18:41 32.3 °F /  0.2 °C 30.5 °F /  -0.8 °C 30.18 in /  1021.9 hPa ENE 0.4 mph /  0.6 km/h 3.5 mph /  5.6 km/h 93 % 0.00 in /  0 mm
18:47 32.4 °F /  0.2 °C 30.6 °F /  -0.8 °C 30.18 in /  1021.9 hPa ENE 0.1 mph /  0.2 km/h 1.2 mph /  1.9 km/h 93 % 0.00 in /  0 mm
19:02 32.6 °F /  0.3 °C 30.8 °F /  -0.7 °C 30.17 in /  1021.6 hPa ENE 1.7 mph /  2.7 km/h 2.3 mph /  3.7 km/h 93 % 0.00 in /  0 mm
19:08 32.6 °F /  0.3 °C 30.8 °F /  -0.7 °C 30.17 in /  1021.6 hPa ENE 1.0 mph /  1.6 km/h 2.3 mph /  3.7 km/h 93 % 0.00 in /  0 mm
19:20 32.6 °F /  0.3 °C 30.8 °F /  -0.7 °C 30.17 in /  1021.6 hPa ENE 0.2 mph /  0.3 km/h 2.3 mph /  3.7 km/h 93 % 0.00 in /  0 mm
19:26 32.6 °F /  0.3 °C 30.8 °F /  -0.7 °C 30.17 in /  1021.6 hPa Calm     93 % 0.00 in /  0 mm
19:31 32.6 °F /  0.3 °C 30.8 °F /  -0.7 °C 30.17 in /  1021.6 hPa Calm     93 % 0.00 in /  0 mm
19:40 32.5 °F /  0.3 °C 30.7 °F /  -0.7 °C 30.17 in /  1021.6 hPa Calm     93 % 0.00 in /  0 mm
19:47 32.5 °F /  0.3 °C 30.7 °F /  -0.7 °C 30.17 in /  1021.6 hPa Calm     93 % 0.00 in /  0 mm
19:52 32.4 °F /  0.2 °C 30.6 °F /  -0.8 °C 30.16 in /  1021.2 hPa Calm     93 % 0.00 in /  0 mm
19:58 32.3 °F /  0.2 °C 30.2 °F /  -1 °C 30.16 in /  1021.2 hPa Calm     92 % 0.00 in /  0 mm
20:04 32.2 °F /  0.1 °C 30.4 °F /  -0.9 °C 30.16 in /  1021.2 hPa Calm     93 % 0.00 in /  0 mm
20:12 32.0 °F /  0 °C 29.9 °F /  -1.2 °C 30.16 in /  1021.2 hPa Calm     92 % 0.00 in /  0 mm
20:21 31.9 °F /  -0.1 °C 29.8 °F /  -1.2 °C 30.16 in /  1021.2 hPa Calm     92 % 0.00 in /  0 mm
20:28 31.9 °F /  -0.1 °C 29.8 °F /  -1.2 °C 30.16 in /  1021.2 hPa Calm     92 % 0.00 in /  0 mm
20:33 31.8 °F /  -0.1 °C 29.7 °F /  -1.3 °C 30.16 in /  1021.2 hPa Calm     92 % 0.00 in /  0 mm
20:50 31.7 °F /  -0.2 °C 29.6 °F /  -1.3 °C 30.16 in /  1021.2 hPa Calm     92 % 0.00 in /  0 mm
21:29 31.8 °F /  -0.1 °C 30.0 °F /  -1.1 °C 30.14 in /  1020.5 hPa Calm     93 % 0.00 in /  0 mm
21:39 31.8 °F /  -0.1 °C 30.0 °F /  -1.1 °C 30.14 in /  1020.5 hPa Calm     93 % 0.00 in /  0 mm
21:44 31.8 °F /  -0.1 °C 30.0 °F /  -1.1 °C 30.14 in /  1020.5 hPa Calm     93 % 0.00 in /  0 mm
21:49 31.9 °F /  -0.1 °C 30.4 °F /  -0.9 °C 30.14 in /  1020.5 hPa Calm     94 % 0.00 in /  0 mm
21:57 31.8 °F /  -0.1 °C 30.3 °F /  -0.9 °C 30.14 in /  1020.5 hPa Calm     94 % 0.00 in /  0 mm
22:09 31.9 °F /  -0.1 °C 30.4 °F /  -0.9 °C 30.14 in /  1020.5 hPa Calm     94 % 0.00 in /  0 mm
22:38 31.7 °F /  -0.2 °C 29.9 °F /  -1.2 °C 30.12 in /  1019.9 hPa Calm     93 % 0.00 in /  0 mm
22:43 31.6 °F /  -0.2 °C 29.8 °F /  -1.2 °C 30.12 in /  1019.9 hPa Calm     93 % 0.00 in /  0 mm
22:53 31.6 °F /  -0.2 °C 29.8 °F /  -1.2 °C 30.11 in /  1019.5 hPa Calm     93 % 0.00 in /  0 mm
23:01 31.5 °F /  -0.3 °C 29.7 °F /  -1.3 °C 30.12 in /  1019.9 hPa Calm     93 % 0.00 in /  0 mm
23:11 31.5 °F /  -0.3 °C 29.7 °F /  -1.3 °C 30.11 in /  1019.5 hPa Calm     93 % 0.00 in /  0 mm
23:17 31.5 °F /  -0.3 °C 30.0 °F /  -1.1 °C 30.11 in /  1019.5 hPa Calm     94 % 0.00 in /  0 mm
23:28 31.6 °F /  -0.2 °C 30.1 °F /  -1.1 °C 30.10 in /  1019.2 hPa Calm     94 % 0.00 in /  0 mm
23:43 31.6 °F /  -0.2 °C 30.1 °F /  -1.1 °C 30.09 in /  1018.8 hPa Calm     94 % 0.00 in /  0 mm
23:58 31.7 °F /  -0.2 °C 30.2 °F /  -1 °C 30.08 in /  1018.5 hPa Calm     94 % 0.00 in /  0 mm
Crab Meadow Weather
Compliments of Weather Underground - 2 mb

Script developed by  Jim McMurry - jmcmurry@mwt.net Adapted for the template by  Wim van der Kuil - Leuven-Template.eu

Extremes: In Wyndham, Australia, the temperature reached 90 degrees F for 333 days in 1946.